When you browse on this site, cookies collect data to enhance your experience and personalize the content and advertising you see.
Visit our Privacy Policy to learn more. By continuing to use the site, you agree to this use of cookies and data.
  • în România
  • Lista ţărilor
  • Pe 7 zile
  • Temperatura apei
  • Hartă satelitară
  • Meteo pe hartă
  • Widget-uri
  • user-avatar
    Intrare

    Meteo pe oră la Lvovo

    Astăzi, 24 Martie, Duminică

    Timp Temperatura Precipitaţii Vânt Presiune Umiditate
    00:00 -2°C° 0 mm 2 m/s 746 mmHg 93%
    01:00 -2°C° 0 mm 2 m/s 745 mmHg 93%
    02:00 -3°C° 0 mm 2 m/s 745 mmHg 94%
    03:00 -2°C° 0 mm 1 m/s 745 mmHg 96%
    04:00 -2°C° 0 mm 1 m/s 744 mmHg 96%
    05:00 -3°C° 0 mm 1 m/s 744 mmHg 97%
    06:00 -5°C° 0 mm 0 m/s 744 mmHg 97%
    07:00 -3°C° 0 mm 1 m/s 743 mmHg 97%
    08:00 -2°C° 0 mm 1 m/s 743 mmHg 96%
    09:00 -2°C° 0 mm 2 m/s 743 mmHg 96%
    10:00 -2°C° 0 mm 2 m/s 742 mmHg 97%
    11:00 -1°C° 0 mm 3 m/s 742 mmHg 98%
    12:00 -1°C° 0 mm 3 m/s 741 mmHg 99%
    13:00 -2°C° 0.2 mm 4 m/s 741 mmHg 99%
    14:00 -2°C° 0.2 mm 4 m/s 740 mmHg 99%
    15:00 -2°C° 0 mm 4 m/s 740 mmHg 99%
    16:00 -2°C° 0.3 mm 4 m/s 739 mmHg 97%
    17:00 -2°C° 0.3 mm 4 m/s 739 mmHg 95%
    18:00 -2°C° 0.3 mm 4 m/s 739 mmHg 94%
    19:00 -2°C° 0.1 mm 4 m/s 738 mmHg 94%
    20:00 -3°C° 0.1 mm 4 m/s 738 mmHg 95%
    21:00 -2°C° 0.1 mm 3 m/s 738 mmHg 95%
    22:00 -4°C° 0 mm 3 m/s 738 mmHg 94%
    23:00 -4°C° 0 mm 3 m/s 737 mmHg 93%

    Mâine, 25 Martie, Luni

    Timp Temperatura Precipitaţii Vânt Presiune Umiditate
    00:00 -5°C° 0 mm 4 m/s 737 mmHg 92%
    01:00 -5°C° 0 mm 4 m/s 737 mmHg 91%
    02:00 -5°C° 0 mm 4 m/s 737 mmHg 90%
    03:00 -5°C° 0 mm 4 m/s 737 mmHg 89%
    04:00 -5°C° 0 mm 4 m/s 737 mmHg 89%
    05:00 -5°C° 0 mm 4 m/s 737 mmHg 90%
    06:00 -7°C° 0 mm 4 m/s 737 mmHg 90%
    07:00 -5°C° 0 mm 4 m/s 737 mmHg 89%
    08:00 -4°C° 0 mm 4 m/s 737 mmHg 88%
    09:00 -4°C° 0 mm 5 m/s 738 mmHg 88%
    10:00 -3°C° 0 mm 4 m/s 738 mmHg 90%
    11:00 -2°C° 0 mm 4 m/s 738 mmHg 92%
    12:00 -1°C° 0 mm 4 m/s 738 mmHg 94%
    13:00 -1°C° 0 mm 4 m/s 738 mmHg 94%
    14:00 -1°C° 0 mm 4 m/s 738 mmHg 95%
    15:00 -1°C° 0 mm 4 m/s 738 mmHg 95%
    16:00 -1°C° 0 mm 4 m/s 738 mmHg 94%
    17:00 -1°C° 0 mm 3 m/s 738 mmHg 92%
    18:00 -1°C° 0 mm 3 m/s 739 mmHg 91%
    19:00 -2°C° 0 mm 3 m/s 739 mmHg 90%
    20:00 -2°C° 0 mm 3 m/s 739 mmHg 89%
    21:00 -4°C° 0 mm 3 m/s 739 mmHg 88%
    22:00 -4°C° 0 mm 3 m/s 739 mmHg 86%
    23:00 -4°C° 0 mm 3 m/s 739 mmHg 85%

    Poimâine, 26 Martie, Marţi

    Timp Temperatura Precipitaţii Vânt Presiune Umiditate
    00:00 -4°C° 0 mm 3 m/s 739 mmHg 84%
    01:00 -4°C° 0 mm 3 m/s 739 mmHg 84%
    02:00 -4°C° 0 mm 3 m/s 739 mmHg 84%
    03:00 -4°C° 0 mm 3 m/s 738 mmHg 84%
    04:00 -4°C° 0 mm 3 m/s 738 mmHg 85%
    05:00 -4°C° 0 mm 3 m/s 738 mmHg 86%
    06:00 -4°C° 0 mm 3 m/s 737 mmHg 87%
    07:00 -2°C° 0.2 mm 3 m/s 737 mmHg 89%
    08:00 -2°C° 0.2 mm 3 m/s 737 mmHg 91%
    09:00 -1°C° 0.2 mm 3 m/s 736 mmHg 92%
    10:00 -1°C° 0.3 mm 3 m/s 736 mmHg 95%
    11:00 -1°C° 0.3 mm 3 m/s 736 mmHg 97%
    12:00 0°C° 0.3 mm 3 m/s 735 mmHg 99%
    13:00 0°C° 0 mm 3 m/s 735 mmHg 99%
    14:00 0°C° 0 mm 3 m/s 735 mmHg 99%
    15:00 0°C° 0 mm 3 m/s 734 mmHg 99%
    16:00 0°C° 0 mm 3 m/s 734 mmHg 99%
    17:00 0°C° 0 mm 3 m/s 734 mmHg 99%
    18:00 0°C° 0 mm 3 m/s 734 mmHg 99%
    19:00 0°C° 1 mm 3 m/s 734 mmHg 97%
    20:00 -1°C° 1 mm 4 m/s 735 mmHg 96%
    21:00 -1°C° 1 mm 4 m/s 735 mmHg 94%
    22:00 -2°C° 0.1 mm 4 m/s 735 mmHg 93%
    23:00 -2°C° 0.1 mm 4 m/s 735 mmHg 91%

    27 Martie, Miercuri

    Timp Temperatura Precipitaţii Vânt Presiune Umiditate
    00:00 -4°C° 0.1 mm 5 m/s 735 mmHg 90%
    01:00 -5°C° 0 mm 5 m/s 735 mmHg 89%
    02:00 -4°C° 0 mm 4 m/s 736 mmHg 89%
    03:00 -5°C° 0 mm 4 m/s 736 mmHg 89%
    04:00 -5°C° 0 mm 4 m/s 737 mmHg 89%
    05:00 -7°C° 0 mm 4 m/s 737 mmHg 90%
    06:00 -6°C° 0 mm 3 m/s 737 mmHg 90%
    07:00 -7°C° 0 mm 4 m/s 738 mmHg 88%
    08:00 -5°C° 0 mm 4 m/s 739 mmHg 85%
    09:00 -4°C° 0 mm 4 m/s 739 mmHg 82%
    10:00 -3°C° 0 mm 4 m/s 740 mmHg 80%
    11:00 -3°C° 0 mm 4 m/s 740 mmHg 78%
    12:00 -2°C° 0 mm 4 m/s 741 mmHg 76%
    13:00 -2°C° 0 mm 4 m/s 741 mmHg 76%
    14:00 -1°C° 0 mm 4 m/s 741 mmHg 77%
    15:00 -1°C° 0 mm 4 m/s 742 mmHg 77%
    16:00 -2°C° 0 mm 4 m/s 742 mmHg 77%
    17:00 -1°C° 0 mm 3 m/s 742 mmHg 78%
    18:00 -2°C° 0 mm 3 m/s 743 mmHg 78%
    19:00 -4°C° 0 mm 3 m/s 743 mmHg 79%
    20:00 -4°C° 0 mm 3 m/s 744 mmHg 80%
    21:00 -5°C° 0 mm 3 m/s 744 mmHg 81%
    22:00 -5°C° 0 mm 4 m/s 745 mmHg 82%
    23:00 -5°C° 0 mm 4 m/s 745 mmHg 83%

    28 Martie, Joi

    Timp Temperatura Precipitaţii Vânt Presiune Umiditate
    00:00 -5°C° 0 mm 4 m/s 745 mmHg 84%
    01:00 -5°C° 0 mm 4 m/s 746 mmHg 85%
    02:00 -7°C° 0 mm 4 m/s 746 mmHg 86%
    03:00 -7°C° 0 mm 4 m/s 746 mmHg 87%
    04:00 -7°C° 0 mm 4 m/s 746 mmHg 88%
    05:00 -7°C° 0 mm 4 m/s 747 mmHg 88%
    06:00 -7°C° 0 mm 5 m/s 747 mmHg 89%
    07:00 -6°C° 0 mm 5 m/s 748 mmHg 87%
    08:00 -6°C° 0 mm 6 m/s 748 mmHg 86%
    09:00 -5°C° 0 mm 6 m/s 749 mmHg 84%
    10:00 -4°C° 0 mm 6 m/s 750 mmHg 82%
    11:00 -4°C° 0 mm 6 m/s 750 mmHg 81%
    12:00 -4°C° 0 mm 5 m/s 750 mmHg 79%
    13:00 -2°C° 0 mm 5 m/s 751 mmHg 77%
    14:00 -2°C° 0 mm 5 m/s 751 mmHg 74%
    15:00 -1°C° 0 mm 4 m/s 751 mmHg 72%
    16:00 -2°C° 0 mm 4 m/s 751 mmHg 71%
    17:00 -2°C° 0 mm 3 m/s 751 mmHg 70%
    18:00 -2°C° 0 mm 3 m/s 751 mmHg 69%
    19:00 -4°C° 0 mm 3 m/s 751 mmHg 70%
    20:00 -4°C° 0 mm 3 m/s 751 mmHg 72%
    21:00 -4°C° 0 mm 3 m/s 752 mmHg 73%
    22:00 -5°C° 0 mm 3 m/s 751 mmHg 74%
    23:00 -5°C° 0 mm 3 m/s 751 mmHg 75%

    29 Martie, Vineri

    Timp Temperatura Precipitaţii Vânt Presiune Umiditate
    00:00 -5°C° 0 mm 3 m/s 751 mmHg 76%
    01:00 -5°C° 0 mm 3 m/s 751 mmHg 76%
    02:00 -4°C° 0 mm 4 m/s 750 mmHg 77%
    03:00 -4°C° 0 mm 4 m/s 750 mmHg 78%
    04:00 -4°C° 0 mm 4 m/s 750 mmHg 80%
    05:00 -4°C° 0 mm 4 m/s 749 mmHg 81%
    06:00 -5°C° 0 mm 5 m/s 749 mmHg 83%
    07:00 -4°C° 0 mm 5 m/s 749 mmHg 84%
    08:00 -2°C° 0 mm 5 m/s 748 mmHg 85%
    09:00 -3°C° 0 mm 6 m/s 748 mmHg 87%
    10:00 -2°C° 0 mm 6 m/s 748 mmHg 89%
    11:00 -1°C° 0 mm 5 m/s 748 mmHg 92%
    12:00 0°C° 0 mm 5 m/s 747 mmHg 94%
    13:00 0°C° 0 mm 5 m/s 747 mmHg 94%
    14:00 0°C° 0 mm 5 m/s 747 mmHg 94%
    15:00 0°C° 0 mm 4 m/s 746 mmHg 94%
    16:00 0°C° 0 mm 4 m/s 746 mmHg 94%
    17:00 0°C° 0 mm 4 m/s 746 mmHg 94%
    18:00 0°C° 0 mm 4 m/s 746 mmHg 94%
    19:00 0°C° 0 mm 4 m/s 746 mmHg 94%
    20:00 0°C° 0 mm 4 m/s 746 mmHg 94%
    21:00 0°C° 0 mm 4 m/s 747 mmHg 93%
    22:00 +1°C° 0 mm 3 m/s 747 mmHg 94%
    23:00 +1°C° 0 mm 3 m/s 747 mmHg 95%
    Arată mai mult